�������l�o���
Date,Time,MP-1(��Sv/h),MP-2(��Sv/h),MP-3(��Sv/h),MP-4(��Sv/h),MP-5(��Sv/h),MP-6(��Sv/h),MP-7(��Sv/h),����,����(m/s),���J
2023/04/27,00:00,0.145,0.131,0.206,0.203,0.206,0.114,0.075,�k��,8.1,��
2023/04/27,00:10,0.144,0.131,0.206,0.202,0.208,0.115,0.075,�k��,8.9,��
2023/04/27,00:20,0.144,0.132,0.205,0.202,0.207,0.115,0.076,�k��,7.9,��
2023/04/27,00:30,0.144,0.132,0.207,0.203,0.207,0.115,0.075,�k��,7.5,��
2023/04/27,00:40,0.144,0.132,0.206,0.203,0.207,0.116,0.074,�k��,6.8,��
2023/04/27,00:50,0.144,0.132,0.207,0.203,0.207,0.115,0.075,�k��,7.2,��
2023/04/27,01:00,0.145,0.132,0.206,0.203,0.208,0.116,0.074,�k��,5.8,��
2023/04/27,01:10,0.144,0.132,0.206,0.203,0.207,0.115,0.074,�k�k��,5.8,��
2023/04/27,01:20,0.144,0.132,0.205,0.202,0.207,0.116,0.075,�k�k��,6.6,��
2023/04/27,01:30,0.145,0.132,0.206,0.203,0.208,0.115,0.075,�k�k��,6.4,��
2023/04/27,01:40,0.145,0.131,0.207,0.203,0.207,0.116,0.074,�k��,6.8,��
2023/04/27,01:50,0.144,0.131,0.207,0.203,0.207,0.115,0.075,�k�k��,5.6,��
2023/04/27,02:00,0.145,0.132,0.207,0.204,0.208,0.116,0.074,�k�k��,5.2,��
2023/04/27,02:10,0.144,0.133,0.207,0.203,0.207,0.115,0.075,�k�k��,6.1,��
2023/04/27,02:20,0.145,0.132,0.206,0.203,0.208,0.115,0.075,�k��,7.2,��
2023/04/27,02:30,0.145,0.131,0.206,0.204,0.208,0.116,0.075,�k��,7.5,��
2023/04/27,02:40,0.144,0.132,0.207,0.203,0.208,0.116,0.074,�k��,5.2,��
2023/04/27,02:50,0.145,0.132,0.207,0.203,0.208,0.116,0.074,�k�k��,4.4,��
2023/04/27,03:00,0.144,0.131,0.206,0.204,0.207,0.116,0.074,�k�k��,3.2,��
2023/04/27,03:10,0.144,0.133,0.206,0.203,0.207,0.115,0.074,�k�k��,4.9,��
2023/04/27,03:20,0.144,0.131,0.207,0.203,0.208,0.115,0.075,�k�k��,4.1,��
2023/04/27,03:30,0.144,0.132,0.207,0.204,0.208,0.117,0.075,�k��,4.3,��
2023/04/27,03:40,0.145,0.131,0.207,0.203,0.207,0.116,0.074,�k��,3.8,��
2023/04/27,03:50,0.145,0.131,0.206,0.202,0.208,0.116,0.075,�k��,4.5,��
2023/04/27,04:00,0.144,0.132,0.208,0.203,0.207,0.115,0.075,�k��,7.8,��
2023/04/27,04:10,0.144,0.133,0.207,0.204,0.207,0.116,0.075,�k��,6.5,��
2023/04/27,04:20,0.145,0.133,0.208,0.204,0.207,0.116,0.075,�k��,5.5,��
2023/04/27,04:30,0.145,0.132,0.206,0.202,0.207,0.115,0.074,�k��,5.0,��
2023/04/27,04:40,0.144,0.132,0.206,0.204,0.207,0.115,0.074,�k��,4.8,��
2023/04/27,04:50,0.145,0.132,0.207,0.203,0.210,0.116,0.074,���k��,4.3,��
2023/04/27,05:00,0.144,0.132,0.207,0.203,0.207,0.116,0.075,���k��,3.9,��
2023/04/27,05:10,0.146,0.132,0.207,0.204,0.206,0.115,0.075,���k��,3.9,��
2023/04/27,05:20,0.144,0.131,0.208,0.204,0.208,0.116,0.074,�k��,2.8,��
2023/04/27,05:30,0.144,0.132,0.207,0.204,0.207,0.115,0.074,�k��,3.0,��
2023/04/27,05:40,0.145,0.132,0.206,0.204,0.207,0.115,0.075,���k��,1.8,��
2023/04/27,05:50,0.145,0.131,0.206,0.204,0.207,0.115,0.075,�k�k��,1.3,��
2023/04/27,06:00,0.144,0.132,0.207,0.203,0.206,0.115,0.075,�k��,3.5,��
2023/04/27,06:10,0.145,0.132,0.207,0.203,0.206,0.116,0.075,�k��,3.8,��
2023/04/27,06:20,0.145,0.132,0.207,0.203,0.207,0.116,0.074,���k��,4.2,��
2023/04/27,06:30,0.144,0.131,0.206,0.204,0.208,0.116,0.075,�k��,4.9,��
2023/04/27,06:40,0.145,0.131,0.206,0.203,0.207,0.116,0.074,�k��,4.3,��
2023/04/27,06:50,0.145,0.132,0.207,0.204,0.208,0.115,0.075,�k��,3.2,��
2023/04/27,07:00,0.144,0.132,0.208,0.204,0.207,0.116,0.074,�k�k��,3.9,��
2023/04/27,07:10,0.146,0.131,0.206,0.201,0.207,0.116,0.075,�k��,4.8,��
2023/04/27,07:20,0.144,0.132,0.207,0.203,0.208,0.116,0.074,�k�k��,5.5,��
2023/04/27,07:30,0.146,0.130,0.206,0.202,0.208,0.116,0.075,�k��,4.5,��
2023/04/27,07:40,0.145,0.131,0.207,0.204,0.210,0.117,0.075,�k��,5.2,��
2023/04/27,07:50,0.145,0.132,0.206,0.202,0.207,0.115,0.075,�k��,4.5,��
2023/04/27,08:00,0.145,0.132,0.205,0.204,0.209,0.115,0.075,�k��,4.0,��
2023/04/27,08:10,0.144,0.131,0.207,0.201,0.206,0.116,0.074,�k�k��,5.6,��
2023/04/27,08:20,0.146,0.131,0.207,0.204,0.207,0.115,0.074,�k��,7.7,��
2023/04/27,08:30,0.144,0.132,0.204,0.203,0.207,0.116,0.075,�k��,6.9,��
2023/04/27,08:40,0.145,0.132,0.207,0.203,0.208,0.116,0.075,�k��,6.0,��
2023/04/27,08:50,0.144,0.132,0.207,0.203,0.208,0.116,0.075,�k��,5.2,��
2023/04/27,09:00,0.145,0.132,0.205,0.202,0.208,0.116,0.075,�k��,3.5,��
2023/04/27,09:10,0.145,0.131,0.205,0.205,0.207,0.116,0.075,�k,2.2,��
2023/04/27,09:20,0.145,0.132,0.208,0.204,0.210,0.117,0.075,�k��,5.8,��
2023/04/27,09:30,0.145,0.132,0.207,0.203,0.207,0.116,0.074,�k��,4.8,��
2023/04/27,09:40,0.144,0.131,0.205,0.204,0.208,0.116,0.074,�k��,4.0,��
2023/04/27,09:50,0.145,0.132,0.204,0.205,0.208,0.116,0.075,���쐼,3.7,��
2023/04/27,10:00,0.145,0.131,0.209,0.202,0.207,0.115,0.074,���k��,4.5,��
2023/04/27,10:10,0.143,0.132,0.208,0.205,0.207,0.116,0.076,���k��,5.1,��
2023/04/27,10:20,0.145,0.131,0.207,0.205,0.209,0.116,0.075,�k�k��,2.1,��
2023/04/27,10:30,0.145,0.130,0.206,0.203,0.207,0.116,0.074,��쓌,1.8,��
2023/04/27,10:40,0.145,0.129,0.206,0.203,0.207,0.116,0.075,�k��,3.8,��
2023/04/27,10:50,0.144,-,0.205,0.204,0.210,0.117,0.075,-,CALM,��
2023/04/27,11:00,0.145,-,0.206,0.205,0.209,0.117,0.075,���쓌,6.2,��
2023/04/27,11:10,0.144,-,0.210,0.204,0.207,0.116,0.075,-,CALM,��
2023/04/27,11:20,0.143,-,0.209,0.204,0.210,0.116,0.076,���쓌,4.8,��
2023/04/27,11:30,0.146,-,0.208,0.206,0.209,0.116,0.075,�쓌,5.0,��
2023/04/27,11:40,0.146,-,0.207,0.205,0.207,0.117,0.075,�쓌,4.9,��
2023/04/27,11:50,0.144,-,0.209,0.203,0.211,0.115,0.075,���쓌,5.1,��
2023/04/27,12:00,0.144,-,0.210,0.206,0.209,0.117,0.075,�쓌,4.2,��
2023/04/27,12:10,0.145,-,0.208,0.205,0.208,0.117,0.076,�쓌,3.2,��
2023/04/27,12:20,0.146,-,0.208,0.204,0.211,0.117,0.075,�쓌,5.2,��
2023/04/27,12:30,0.144,-,0.210,0.204,0.209,0.117,0.075,���쓌,6.0,��
2023/04/27,12:40,0.144,-,0.207,0.207,0.207,0.117,0.076,���쓌,6.1,��
2023/04/27,12:50,0.143,-,0.208,0.205,0.210,0.116,0.075,���쓌,6.7,��
2023/04/27,13:00,0.146,-,0.210,0.204,0.210,0.117,0.075,���쓌,5.9,��
2023/04/27,13:10,0.146,-,0.210,0.206,0.208,0.117,0.075,���쓌,5.7,��
2023/04/27,13:20,0.144,-,0.208,0.206,0.209,0.117,0.075,���쓌,5.4,��
2023/04/27,13:30,0.144,-,0.210,0.204,0.211,0.118,0.075,���쓌,5.0,��
2023/04/27,13:40,0.145,-,0.211,0.207,0.208,0.117,0.075,���쓌,4.2,��
2023/04/27,13:50,0.146,-,0.210,0.206,0.211,0.117,0.075,�쓌,4.2,��
2023/04/27,14:00,0.145,-,0.208,0.205,0.210,0.117,0.076,���쓌,5.6,��
2023/04/27,14:10,0.144,-,0.211,0.207,0.208,0.118,0.075,���쓌,6.1,��
2023/04/27,14:20,0.143,-,0.210,0.208,0.208,0.118,0.076,�쓌,3.3,��
2023/04/27,14:30,0.145,-,0.207,0.206,0.210,0.117,0.075,���쓌,4.6,��
2023/04/27,14:40,0.146,-,0.210,0.205,0.209,0.118,0.075,���쓌,4.6,��
2023/04/27,14:50,0.146,-,0.211,0.208,0.207,0.118,0.075,���쓌,5.1,��
2023/04/27,15:00,0.145,-,0.208,0.206,0.211,0.117,0.075,���쓌,3.4,��
2023/04/27,15:10,0.144,-,0.209,0.205,0.208,0.118,0.076,���쓌,3.9,��
2023/04/27,15:20,0.146,-,0.211,0.208,0.209,0.117,0.076,�쓌,3.4,��
2023/04/27,15:30,0.146,-,0.209,0.207,0.208,0.116,0.076,�쓌,3.6,��
2023/04/27,15:40,0.145,-,0.212,0.208,0.210,0.117,0.076,�쓌,4.0,��
2023/04/27,15:50,0.145,-,0.210,0.208,0.209,0.117,0.076,�쓌,4.1,��
2023/04/27,16:00,0.146,-,0.212,0.207,0.208,0.117,0.075,�쓌,5.5,��
2023/04/27,16:10,0.146,-,0.210,0.207,0.211,0.116,0.076,�쓌,6.5,��
2023/04/27,16:20,0.145,-,0.212,0.208,0.209,0.118,0.076,�쓌,6.7,��
2023/04/27,16:30,0.147,-,0.211,0.209,0.207,0.117,0.075,�쓌,7.4,��
2023/04/27,16:40,0.147,-,0.212,0.207,0.211,0.117,0.076,�쓌,6.5,��
2023/04/27,16:50,0.147,-,0.211,0.209,0.210,0.117,0.076,�쓌,7.3,��
2023/04/27,17:00,0.147,-,0.212,0.207,0.209,0.118,0.076,�쓌,6.7,��
2023/04/27,17:10,0.146,-,0.211,0.208,0.212,0.116,0.076,�쓌,5.0,��
2023/04/27,17:20,0.146,-,0.211,0.207,0.210,0.118,0.076,��쓌,5.6,��
2023/04/27,17:30,0.147,-,0.212,0.208,0.213,0.118,0.076,��쓌,4.4,��
2023/04/27,17:40,0.146,-,0.210,0.209,0.211,0.118,0.076,��쓌,3.5,��
2023/04/27,17:50,0.146,-,0.212,0.207,0.212,0.118,0.076,��,3.9,��
2023/04/27,18:00,0.147,0.132,0.211,0.208,0.210,0.118,0.076,��,3.8,��
2023/04/27,18:10,0.146,0.133,0.211,0.206,0.212,0.117,0.076,��쐼,1.8,��
2023/04/27,18:20,0.146,0.134,0.211,0.208,0.210,0.117,0.076,�쐼,1.6,��
2023/04/27,18:30,0.148,0.133,0.210,0.209,0.211,0.117,0.076,���쐼,2.1,��
2023/04/27,18:40,0.146,0.134,0.211,0.208,0.210,0.118,0.076,���k��,2.1,��
2023/04/27,18:50,0.147,0.133,0.211,0.207,0.210,0.117,0.076,��,1.4,��
2023/04/27,19:00,0.146,0.134,0.212,0.206,0.211,0.117,0.076,��,2.7,��
2023/04/27,19:10,0.146,0.135,0.212,0.209,0.211,0.118,0.076,��,3.4,��
2023/04/27,19:20,0.146,0.134,0.211,0.207,0.212,0.118,0.076,���k��,4.8,��
2023/04/27,19:30,0.147,0.133,0.211,0.207,0.209,0.119,0.076,��,7.1,��
2023/04/27,19:40,0.147,0.134,0.212,0.209,0.213,0.118,0.076,���k��,7.7,��
2023/04/27,19:50,0.146,0.134,0.212,0.207,0.210,0.119,0.075,��,5.9,��
2023/04/27,20:00,0.147,0.133,0.211,0.208,0.210,0.118,0.076,���k��,3.8,��
2023/04/27,20:10,0.147,0.133,0.213,0.208,0.211,0.118,0.076,��쓌,1.5,��
2023/04/27,20:20,0.148,0.134,0.212,0.207,0.209,0.119,0.075,��,2.1,��
2023/04/27,20:30,0.147,0.133,0.212,0.209,0.211,0.118,0.075,��쓌,3.5,��
2023/04/27,20:40,0.146,0.133,0.211,0.208,0.210,0.118,0.076,��쓌,2.5,��
2023/04/27,20:50,0.147,0.133,0.212,0.207,0.211,0.118,0.076,��쐼,2.0,��
2023/04/27,21:00,0.146,0.134,0.212,0.208,0.211,0.118,0.076,�쐼,2.2,��
2023/04/27,21:10,0.146,0.135,0.212,0.208,0.211,0.118,0.076,��쐼,3.9,��
2023/04/27,21:20,0.147,0.133,0.211,0.208,0.211,0.118,0.076,�쐼,3.0,��
2023/04/27,21:30,0.146,0.134,0.211,0.209,0.210,0.118,0.076,��쐼,4.4,��
2023/04/27,21:40,0.147,0.134,0.212,0.208,0.210,0.119,0.076,��쐼,4.5,��
2023/04/27,21:50,0.146,0.134,0.211,0.207,0.211,0.117,0.076,�쐼,3.9,��
2023/04/27,22:00,0.146,0.134,0.211,0.208,0.211,0.118,0.076,�쐼,2.8,��
2023/04/27,22:10,0.148,0.134,0.212,0.208,0.210,0.118,0.076,���쐼,2.2,��
2023/04/27,22:20,0.146,0.132,0.211,0.208,0.211,0.118,0.076,��,2.6,��
2023/04/27,22:30,0.147,0.135,0.211,0.208,0.209,0.118,0.076,���k��,3.1,��
2023/04/27,22:40,0.147,0.134,0.212,0.207,0.211,0.118,0.076,��,3.0,��
2023/04/27,22:50,0.147,0.133,0.211,0.207,0.209,0.119,0.076,���쐼,2.8,��
2023/04/27,23:00,0.146,0.133,0.211,0.208,0.210,0.118,0.075,���쐼,1.6,��
2023/04/27,23:10,0.148,0.134,0.212,0.208,0.212,0.118,0.077,��쐼,0.6,��
2023/04/27,23:20,0.146,0.133,0.211,0.207,0.211,0.119,0.075,�쓌,1.9,��
2023/04/27,23:30,0.148,0.134,0.212,0.209,0.211,0.119,0.076,�쐼,1.5,��
2023/04/27,23:40,0.146,0.134,0.211,0.208,0.211,0.119,0.076,�쐼,3.4,��
2023/04/27,23:50,0.147,0.134,0.211,0.207,0.209,0.118,0.076,�쐼,3.6,��
